EW9411 Weather Reports


time (UTC)temp
C
wind
direction
speed
KPH
gust
KPH
rain 1hr
cm
rain 24hr
cm
rain mn
cm
humidity
%
barometer
mb
20260506122907 18 227 8.0 17.7 0.00 0.00 0.00 78 1007.4
20260506122643 18 200 8.0 24.1 0.00 0.00 0.00 78 1007.5
20260506122333 18 202 11.3 24.1 0.00 0.00 0.00 78 1007.6
20260506122132 18 227 6.4 24.1 0.00 0.00 0.00 78 1007.6
20260506121902 18 256 8.0 24.1 0.00 0.00 0.00 78 1007.6
20260506121638 18 221 6.4 16.1 0.00 0.00 0.00 78 1007.5
20260506121407 18 244 9.7 19.3 0.00 0.00 0.00 78 1007.6
20260506121143 18 197 8.0 25.7 0.00 0.00 0.00 78 1007.6
20260506120834 18 233 12.9 25.7 0.00 0.00 0.00 78 1007.7
20260506120632 18 190 14.5 25.7 0.00 0.00 0.00 78 1007.8
20260506120339 18 227 12.9 20.9 0.00 0.00 0.00 78 1007.8
20260506120140 18 189 8.0 17.7 0.00 0.00 0.00 78 1007.8
20260506115845 18 239 8.0 19.3 0.00 0.00 0.00 78 1007.9
20260506115647 18 212 6.4 19.3 0.00 0.00 0.00 78 1007.9
20260506115354 18 189 9.7 19.3 0.00 0.00 0.00 78 1007.8
20260506115156 18 215 8.0 19.3 0.00 0.00 0.00 78 1007.9
20260506114902 18 221 12.9 20.9 0.00 0.00 0.00 78 1007.9
20260506114638 18 232 11.3 17.7 0.00 0.00 0.00 78 1007.8
20260506114348 18 235 8.0 17.7 0.00 0.00 0.00 78 1008.0
20260506114148 18 228 11.3 17.7 0.00 0.00 0.00 78 1008.0
20260506113839 18 210 9.7 22.5 0.00 0.00 0.00 79 1008.0
20260506113638 18 210 8.0 22.5 0.00 0.00 0.00 79 1007.9
20260506113348 18 225 11.3 22.5 0.00 0.00 0.00 79 1007.9
20260506113207 18 207 9.7 22.5 0.00 0.00 0.00 79 1007.8
20260506112837 18 200 11.3 19.3 0.00 0.00 0.00 79 1007.9
20260506112634 18 233 6.4 19.3 0.00 0.00 0.00 79 1007.9
20260506112345 18 192 12.9 20.9 0.00 0.00 0.00 79 1007.9
20260506112143 18 171 8.0 19.3 0.00 0.00 0.00 79 1007.9
20260506111853 18 219 11.3 19.3 0.00 0.00 0.00 79 1007.9
20260506111712 18 225 8.0 20.9 0.00 0.00 0.00 79 1007.8
20260506111341 18 214 9.7 17.7 0.00 0.00 0.00 80 1007.8
20260506111137 18 168 6.4 17.7 0.00 0.00 0.00 80 1007.7
20260506110847 18 225 9.7 17.7 0.00 0.00 0.00 80 1007.8
20260506110644 18 186 9.7 19.3 0.00 0.00 0.00 80 1007.8
20260506110411 18 204 9.7 20.9 0.00 0.00 0.00 80 1007.8
20260506110151 18 182 9.7 17.7 0.00 0.00 0.00 80 1007.8
20260506105836 18 204 8.0 17.7 0.00 0.00 0.00 81 1007.7
20260506105637 18 224 9.7 17.7 0.00 0.00 0.00 81 1007.7
20260506105345 18 192 8.0 14.5 0.00 0.00 0.00 81 1007.6
20260506105147 18 192 6.4 12.9 0.00 0.00 0.00 81 1007.6
20260506104835 17 217 6.4 12.9 0.00 0.00 0.00 81 1007.6
20260506104657 17 204 6.4 16.1 0.00 0.00 0.00 81 1007.6
20260506104342 17 213 6.4 16.1 0.00 0.00 0.00 81 1007.7
20260506104144 17 214 6.4 16.1 0.00 0.00 0.00 81 1007.8
20260506103833 17 214 8.0 20.9 0.00 0.00 0.00 81 1007.8
20260506103635 17 229 4.8 20.9 0.00 0.00 0.00 81 1007.8
20260506103402 17 231 9.7 20.9 0.00 0.00 0.00 81 1007.8
20260506103140 17 228 11.3 20.9 0.00 0.00 0.00 81 1007.8
20260506102850 17 188 8.0 16.1 0.00 0.00 0.00 81 1007.7
20260506102647 17 214 9.7 16.1 0.00 0.00 0.00 81 1007.6
20260506102339 17 213 8.0 16.1 0.00 0.00 0.00 81 1007.6
20260506102137 17 238 6.4 16.1 0.00 0.00 0.00 81 1007.6
20260506101908 17 225 3.2 16.1 0.00 0.00 0.00 81 1007.6
20260506101645 17 229 8.0 16.1 0.00 0.00 0.00 81 1007.7
20260506101355 17 197 8.0 16.1 0.00 0.00 0.00 81 1007.6
20260506101133 17 200 8.0 14.5 0.00 0.00 0.00 82 1007.6
20260506100844 17 185 4.8 16.1 0.00 0.00 0.00 82 1007.7
20260506100643 17 216 6.4 16.1 0.00 0.00 0.00 82 1007.6
20260506100352 17 206 8.0 16.1 0.00 0.00 0.00 82 1007.6
20260506100150 17 189 4.8 14.5 0.00 0.00 0.00 82 1007.6
20260506095835 17 215 4.8 14.5 0.00 0.00 0.00 82 1007.4
20260506095637 17 206 6.4 14.5 0.00 0.00 0.00 82 1007.4
20260506095344 17 220 8.0 14.5 0.00 0.00 0.00 82 1007.4
20260506095146 17 206 4.8 14.5 0.00 0.00 0.00 82 1007.4
20260506094833 17 183 6.4 14.5 0.00 0.00 0.00 81 1007.5
20260506094634 17 187 6.4 19.3 0.00 0.00 0.00 81 1007.5
20260506094341 17 208 6.4 19.3 0.00 0.00 0.00 81 1007.5
20260506094142 17 182 6.4 19.3 0.00 0.00 0.00 81 1007.5
20260506093850 17 216 8.0 19.3 0.00 0.00 0.00 82 1007.4
20260506093655 17 223 4.8 16.1 0.00 0.00 0.00 81 1007.5
20260506093341 17 200 6.4 16.1 0.00 0.00 0.00 81 1007.5
20260506093143 17 195 6.4 16.1 0.00 0.00 0.00 81 1007.5
20260506092849 17 212 8.0 12.9 0.00 0.00 0.00 81 1007.6
20260506092646 17 212 8.0 12.9 0.00 0.00 0.00 81 1007.6
20260506092356 17 169 4.8 11.3 0.00 0.00 0.00 81 1007.4
20260506092134 17 206 6.4 11.3 0.00 0.00 0.00 81 1007.5
20260506091844 17 220 4.8 12.9 0.00 0.00 0.00 81 1007.5
20260506091641 17 225 6.4 12.9 0.00 0.00 0.00 81 1007.5
20260506091350 17 214 4.8 12.9 0.00 0.00 0.00 81 1007.5
20260506091147 17 213 6.4 16.1 0.00 0.00 0.00 81 1007.5
20260506090839 17 207 6.4 16.1 0.00 0.00 0.00 81 1007.5
20260506090636 17 205 6.4 16.1 0.00 0.00 0.00 81 1007.5
20260506090348 17 193 6.4 16.1 0.00 0.00 0.00 81 1007.5
20260506090146 17 227 6.4 11.3 0.00 0.00 0.00 81 1007.6
20260506085835 17 211 6.4 11.3 0.00 0.00 0.00 81 1007.6
20260506085632 17 201 6.4 11.3 0.00 0.00 0.00 81 1007.6
20260506085411 17 214 4.8 11.3 0.00 0.00 0.00 80 1007.6
20260506085148 17 204 8.0 12.9 0.00 0.00 0.00 80 1007.6
20260506084859 17 191 6.4 14.5 0.00 0.00 0.00 80 1007.7
20260506084658 17 190 6.4 14.5 0.00 0.00 0.00 80 1007.6
20260506084403 17 219 6.4 14.5 0.00 0.00 0.00 80 1007.7
20260506084145 17 214 8.0 14.5 0.00 0.00 0.00 80 1007.7
20260506083850 17 222 8.0 14.5 0.00 0.00 0.00 80 1007.7
20260506083655 17 228 6.4 14.5 0.00 0.00 0.00 80 1007.7
20260506083340 17 185 8.0 14.5 0.00 0.00 0.00 80 1007.7
20260506083141 17 198 6.4 12.9 0.00 0.00 0.00 79 1007.7
20260506082908 17 188 6.4 12.9 0.00 0.00 0.00 79 1007.7
20260506082645 17 192 6.4 12.9 0.00 0.00 0.00 79 1007.7
20260506082336 18 196 6.4 14.5 0.00 0.00 0.00 79 1007.7
20260506082134 18 199 6.4 14.5 0.00 0.00 0.00 79 1007.7
20260506081845 18 202 6.4 14.5 0.00 0.00 0.00 79 1007.8
20260506081704 18 191 8.0 14.5 0.00 0.00 0.00 78 1007.7
20260506081332 18 208 4.8 11.3 0.00 0.00 0.00 78 1007.8
20260506081149 18 204 4.8 12.9 0.00 0.00 0.00 78 1007.8
20260506080840 18 212 6.4 12.9 0.00 0.00 0.00 78 1007.7
20260506080700 18 216 4.8 12.9 0.00 0.00 0.00 78 1007.7
20260506080350 18 231 4.8 12.9 0.00 0.00 0.00 78 1007.8
20260506080147 18 223 6.4 12.9 0.00 0.00 0.00 78 1007.8
20260506073333 18 210 4.8 16.1 0.00 0.00 0.00 75 1007.7
20260506073136 18 211 4.8 16.1 0.00 0.00 0.00 75 1007.8
20260506072902 18 191 6.4 12.9 0.00 0.00 0.00 75 1007.8
20260506072643 18 202 4.8 11.3 0.00 0.00 0.00 74 1007.8
20260506072351 18 206 4.8 9.7 0.00 0.00 0.00 74 1007.8
20260506072210 18 181 6.4 9.7 0.00 0.00 0.00 74 1007.7
20260506071900 18 204 4.8 8.0 0.00 0.00 0.00 74 1007.8
20260506071636 18 202 4.8 8.0 0.00 0.00 0.00 74 1007.8
20260506071344 18 206 4.8 12.9 0.00 0.00 0.00 74 1007.7
20260506071141 18 206 4.8 14.5 0.00 0.00 0.00 74 1007.8
20260506070853 18 204 4.8 14.5 0.00 0.00 0.00 73 1007.7
20260506070712 18 216 6.4 14.5 0.00 0.00 0.00 73 1007.8
20260506070402 18 179 8.0 14.5 0.00 0.00 0.00 73 1007.8
20260506070138 18 206 6.4 12.9 0.00 0.00 0.00 73 1007.8
20260506062348 19 191 6.4 14.5 0.00 0.00 0.00 71 1007.9
20260506062146 19 198 4.8 12.9 0.00 0.00 0.00 71 1008.0
20260506061836 19 229 6.4 11.3 0.00 0.00 0.00 70 1007.9
20260506061634 19 202 4.8 9.7 0.00 0.00 0.00 71 1007.9
20260506061403 19 202 4.8 12.9 0.00 0.00 0.00 71 1008.0
20260506061140 19 198 6.4 12.9 0.00 0.00 0.00 71 1008.0
20260506060851 19 198 4.8 12.9 0.00 0.00 0.00 70 1008.0
20260506060647 19 208 8.0 12.9 0.00 0.00 0.00 70 1008.0
20260506060338 19 214 4.8 11.3 0.00 0.00 0.00 70 1008.0
20260506060135 19 213 4.8 11.3 0.00 0.00 0.00 70 1008.0
20260506051334 20 193 4.8 11.3 0.00 0.00 0.00 67 1008.4
20260506051132 20 207 6.4 11.3 0.00 0.00 0.00 67 1008.4
20260506050844 20 184 6.4 12.9 0.00 0.00 0.00 67 1008.5
20260506050643 20 204 6.4 12.9 0.00 0.00 0.00 67 1008.5
20260506050355 20 186 8.0 12.9 0.00 0.00 0.00 67 1008.5
20260506050132 20 202 6.4 12.9 0.00 0.00 0.00 66 1008.6
20260506044836 20 203 9.7 19.3 0.00 0.00 0.00 66 1008.6
20260506044635 20 187 9.7 19.3 0.00 0.00 0.00 66 1008.6
20260506044345 20 205 8.0 19.3 0.00 0.00 0.00 66 1008.6
20260506044144 20 214 8.0 19.3 0.00 0.00 0.00 66 1008.6
20260506043855 20 199 6.4 12.9 0.00 0.00 0.00 66 1008.5
20260506043632 20 194 8.0 12.9 0.00 0.00 0.00 66 1008.5
20260506043340 20 198 3.2 12.9 0.00 0.00 0.00 66 1008.5
20260506043140 20 198 6.4 12.9 0.00 0.00 0.00 66 1008.5
20260506042846 20 206 8.0 12.9 0.00 0.00 0.00 66 1008.5
20260506042647 20 225 8.0 12.9 0.00 0.00 0.00 66 1008.5
20260506042414 20 215 6.4 11.3 0.00 0.00 0.00 65 1008.5
20260506042154 20 216 6.4 12.9 0.00 0.00 0.00 65 1008.5
20260506041900 20 201 8.0 12.9 0.00 0.00 0.00 65 1008.5
20260506041658 20 214 8.0 16.1 0.00 0.00 0.00 65 1008.5
20260506041354 20 202 8.0 16.1 0.00 0.00 0.00 65 1008.5
20260506041144 20 214 6.4 16.1 0.00 0.00 0.00 65 1008.5
20260506040836 20 218 9.7 17.7 0.00 0.00 0.00 65 1008.5
20260506040655 20 210 9.7 17.7 0.00 0.00 0.00 65 1008.5
20260506040343 20 227 6.4 17.7 0.00 0.00 0.00 65 1008.5
20260506040141 20 202 8.0 17.7 0.00 0.00 0.00 64 1008.4
20260506035845 20 204 8.0 17.7 0.00 0.00 0.00 64 1008.3
20260506035643 20 184 6.4 17.7 0.00 0.00 0.00 64 1008.4
20260506035334 20 199 9.7 14.5 0.00 0.00 0.00 64 1008.4
20260506035132 20 196 8.0 14.5 0.00 0.00 0.00 64 1008.4
20260506034843 21 196 8.0 14.5 0.00 0.00 0.00 64 1008.4
20260506034641 21 211 6.4 14.5 0.00 0.00 0.00 63 1008.4
20260506034333 21 191 8.0 14.5 0.00 0.00 0.00 63 1008.4
20260506034150 21 215 8.0 12.9 0.00 0.00 0.00 63 1008.4
20260506033840 21 209 4.8 11.3 0.00 0.00 0.00 63 1008.4
20260506033659 21 197 6.4 17.7 0.00 0.00 0.00 63 1008.4
20260506033345 21 225 8.0 17.7 0.00 0.00 0.00 62 1008.4
20260506033146 21 191 6.4 17.7 0.00 0.00 0.00 62 1008.4
20260506032833 21 216 8.0 14.5 0.00 0.00 0.00 61 1008.3
20260506032635 21 202 8.0 17.7 0.00 0.00 0.00 61 1008.4
20260506032341 21 173 8.0 17.7 0.00 0.00 0.00 61 1008.3
20260506032144 21 169 8.0 17.7 0.00 0.00 0.00 61 1008.3
20260506031850 21 189 9.7 20.9 0.00 0.00 0.00 60 1008.4
20260506031633 21 209 8.0 20.9 0.00 0.00 0.00 60 1008.3
20260506031337 21 225 11.3 22.5 0.00 0.00 0.00 60 1008.3
20260506031139 21 191 11.3 22.5 0.00 0.00 0.00 60 1008.3
20260506030846 21 193 9.7 22.5 0.00 0.00 0.00 60 1008.3
20260506030646 22 188 12.9 32.2 0.00 0.00 0.00 60 1008.3
20260506030353 22 213 9.7 32.2 0.00 0.00 0.00 59 1008.3
20260506030152 22 206 12.9 32.2 0.00 0.00 0.00 59 1008.3
20260506025841 22 234 11.3 29.0 0.00 0.00 0.00 58 1008.2
20260506025639 22 187 11.3 29.0 0.00 0.00 0.00 58 1008.2
20260506025348 22 209 9.7 29.0 0.00 0.00 0.00 58 1008.1
20260506025147 22 175 16.1 29.0 0.00 0.00 0.00 58 1008.2
20260506024836 22 218 12.9 25.7 0.00 0.00 0.00 58 1008.2
20260506024634 22 219 11.3 25.7 0.00 0.00 0.00 57 1008.2
20260506024346 22 204 14.5 25.7 0.00 0.00 0.00 57 1008.1
20260506024143 22 216 11.3 19.3 0.00 0.00 0.00 57 1008.1
20260506023853 22 189 11.3 24.1 0.00 0.00 0.00 56 1008.1
20260506023631 22 214 12.9 24.1 0.00 0.00 0.00 56 1008.2
20260506023340 22 181 8.0 24.1 0.00 0.00 0.00 56 1008.1
20260506023159 22 174 11.3 24.1 0.00 0.00 0.00 55 1008.1
20260506022906 22 164 9.7 29.0 0.00 0.00 0.00 55 1008.1
20260506022647 22 182 11.3 29.0 0.00 0.00 0.00 54 1008.1
20260506022333 22 235 12.9 29.0 0.00 0.00 0.00 54 1008.1
20260506022135 22 227 17.7 27.4 0.00 0.00 0.00 54 1008.1
20260506021841 22 232 11.3 29.0 0.00 0.00 0.00 53 1008.0
20260506021705 22 214 8.0 29.0 0.00 0.00 0.00 53 1008.0
20260506021409 23 206 11.3 29.0 0.00 0.00 0.00 53 1008.1
20260506021208 23 199 14.5 29.0 0.00 0.00 0.00 52 1008.1
20260506020858 23 200 14.5 27.4 0.00 0.00 0.00 52 1008.0
20260506020653 23 197 9.7 27.4 0.00 0.00 0.00 51 1008.0
20260506020405 23 214 12.9 30.6 0.00 0.00 0.00 51 1008.0
20260506020141 23 203 12.9 30.6 0.00 0.00 0.00 51 1008.0
20260506015832 23 239 11.3 30.6 0.00 0.00 0.00 50 1008.0
20260506015648 23 200 19.3 30.6 0.00 0.00 0.00 50 1007.9
20260506015339 23 225 12.9 24.1 0.00 0.00 0.00 49 1007.9
20260506015158 23 202 12.9 25.7 0.00 0.00 0.00 49 1007.9
20260506014847 23 224 14.5 25.7 0.00 0.00 0.00 49 1008.0
20260506014644 23 225 14.5 25.7 0.00 0.00 0.00 49 1007.9
20260506014335 23 173 14.5 25.7 0.00 0.00 0.00 48 1007.9
20260506014134 23 209 11.3 20.9 0.00 0.00 0.00 48 1007.8
20260506013841 23 227 11.3 19.3 0.00 0.00 0.00 48 1007.8
20260506013643 23 195 9.7 19.3 0.00 0.00 0.00 48 1007.8
20260506013410 23 212 9.7 17.7 0.00 0.00 0.00 48 1007.7
20260506013132 23 206 8.0 17.7 0.00 0.00 0.00 48 1007.8
20260506012838 24 199 9.7 16.1 0.00 0.00 0.00 48 1007.7
20260506012640 24 204 9.7 17.7 0.00 0.00 0.00 48 1007.7
20260506012407 24 208 6.4 19.3 0.00 0.00 0.00 48 1007.5
20260506012149 24 182 8.0 19.3 0.00 0.00 0.00 47 1007.6
20260506011836 24 190 8.0 19.3 0.00 0.00 0.00 47 1007.5
20260506011639 24 168 11.3 19.3 0.00 0.00 0.00 47 1007.5
20260506011345 24 220 11.3 20.9 0.00 0.00 0.00 47 1007.5
20260506011142 24 187 6.4 16.1 0.00 0.00 0.00 47 1007.5
20260506010833 24 229 9.7 16.1 0.00 0.00 0.00 47 1007.5
20260506010632 24 203 9.7 16.1 0.00 0.00 0.00 46 1007.4
20260506010343 24 268 8.0 16.1 0.00 0.00 0.00 46 1007.4
20260506010142 24 241 9.7 16.1 0.00 0.00 0.00 46 1007.4
20260506005833 24 212 8.0 17.7 0.00 0.00 0.00 46 1007.4
20260506005631 24 226 8.0 22.5 0.00 0.00 0.00 46 1007.4
20260506005343 24 226 8.0 22.5 0.00 0.00 0.00 45 1007.3
20260506005140 25 241 8.0 25.7 0.00 0.00 0.00 45 1007.3
20260506004852 25 235 14.5 25.7 0.00 0.00 0.00 45 1007.3
20260506004651 25 229 11.3 25.7 0.00 0.00 0.00 44 1007.2
20260506004341 25 185 14.5 25.7 0.00 0.00 0.00 44 1007.2
20260506004139 25 227 8.0 19.3 0.00 0.00 0.00 43 1007.2
20260506003849 25 211 8.0 19.3 0.00 0.00 0.00 42 1007.2
20260506003647 25 207 11.3 19.3 0.00 0.00 0.00 42 1007.2
20260506003338 25 195 6.4 17.7 0.00 0.00 0.00 42 1007.2
20260506003157 25 214 8.0 17.7 0.00 0.00 0.00 42 1007.1
20260506002848 25 175 8.0 17.7 0.00 0.00 0.00 42 1007.0
20260506002645 25 210 6.4 22.5 0.00 0.00 0.00 41 1007.0
20260506002335 25 172 9.7 22.5 0.00 0.00 0.00 41 1006.9
20260506002134 25 180 11.3 22.5 0.00 0.00 0.00 41 1006.9
20260506001839 25 189 9.7 19.3 0.00 0.00 0.00 40 1006.8
20260506001642 25 230 8.0 16.1 0.00 0.00 0.00 40 1006.8
20260506001347 25 214 8.0 16.1 0.00 0.00 0.00 40 1006.8
20260506001208 25 187 8.0 14.5 0.00 0.00 0.00 40 1006.8
20260506000836 25 204 4.8 14.5 0.00 0.00 0.00 40 1006.8
20260506000637 25 226 8.0 14.5 0.00 0.00 0.00 40 1006.8
20260506000346 25 203 6.4 16.1 0.00 0.00 0.00 40 1006.7
20260506000148 25 212 8.0 16.1 0.00 0.00 0.00 39 1006.8
20260505235836 25 217 8.0 24.1 0.00 0.00 0.00 39 1006.7
20260505235637 25 218 8.0 24.1 0.00 0.00 0.00 39 1006.7
20260505235406 26 191 11.3 24.1 0.00 0.00 0.00 38 1006.7
20260505235143 26 210 12.9 29.0 0.00 0.00 0.00 38 1006.7
20260505234854 26 201 9.7 29.0 0.00 0.00 0.00 38 1006.7
20260505234631 26 229 11.3 29.0 0.00 0.00 0.00 38 1006.7
20260505234342 26 200 12.9 29.0 0.00 0.00 0.00 38 1006.8
20260505234141 26 251 11.3 27.4 0.00 0.00 0.00 38 1006.7
20260505233850 26 208 12.9 27.4 0.00 0.00 0.00 38 1006.8
20260505233648 26 259 9.7 25.7 0.00 0.00 0.00 38 1006.6
20260505233340 26 216 9.7 24.1 0.00 0.00 0.00 38 1006.5
20260505233138 26 227 14.5 24.1 0.00 0.00 0.00 37 1006.6
20260505232849 26 226 12.9 24.1 0.00 0.00 0.00 37 1006.6
20260505232647 26 225 12.9 24.1 0.00 0.00 0.00 37 1006.5
20260505232337 26 216 11.3 24.1 0.00 0.00 0.00 37 1006.5
20260505232136 26 183 12.9 24.1 0.00 0.00 0.00 37 1006.6
20260505231846 26 215 11.3 22.5 0.00 0.00 0.00 37 1006.4
20260505231642 26 208 12.9 22.5 0.00 0.00 0.00 37 1006.4
20260505231352 26 200 9.7 24.1 0.00 0.00 0.00 37 1006.3
20260505231211 26 216 8.0 24.1 0.00 0.00 0.00 37 1006.3
20260505230842 26 229 9.7 24.1 0.00 0.00 0.00 36 1006.3
20260505230701 26 187 12.9 24.1 0.00 0.00 0.00 36 1006.3
20260505230408 26 231 14.5 25.7 0.00 0.00 0.00 36 1006.3
20260505230148 26 212 14.5 29.0 0.00 0.00 0.00 36 1006.2
20260505225834 26 228 12.9 29.0 0.00 0.00 0.00 36 1006.2
20260505225636 26 262 16.1 29.0 0.00 0.00 0.00 36 1006.2
20260505225402 26 203 12.9 24.1 0.00 0.00 0.00 35 1006.2
20260505225144 26 238 8.0 24.1 0.00 0.00 0.00 36 1006.1
20260505224851 26 212 12.9 24.1 0.00 0.00 0.00 35 1006.1
20260505224648 26 316 11.3 29.0 0.00 0.00 0.00 36 1006.1
20260505224337 26 235 16.1 30.6 0.00 0.00 0.00 35 1006.1
20260505224136 26 231 11.3 33.8 0.00 0.00 0.00 35 1006.0
20260505223846 26 219 14.5 33.8 0.00 0.00 0.00 35 1005.9
20260505223645 26 200 16.1 33.8 0.00 0.00 0.00 35 1006.0
20260505223336 27 175 19.3 33.8 0.00 0.00 0.00 34 1005.9
20260505223134 27 202 14.5 30.6 0.00 0.00 0.00 34 1005.9
20260505222844 27 228 9.7 33.8 0.00 0.00 0.00 34 1005.9
20260505222642 27 225 6.4 33.8 0.00 0.00 0.00 35 1005.9
20260505222333 27 210 14.5 33.8 0.00 0.00 0.00 34 1005.9
20260505222218 27 216 14.5 33.8 0.00 0.00 0.00 34 1005.9
20260505221907 27 193 12.9 29.0 0.00 0.00 0.00 34 1005.9
20260505221644 27 203 11.3 29.0 0.00 0.00 0.00 34 1005.9
20260505221333 27 232 14.5 24.1 0.00 0.00 0.00 34 1005.9
20260505221210 27 249 12.9 24.1 0.00 0.00 0.00 34 1005.9
20260505220840 27 253 14.5 25.7 0.00 0.00 0.00 34 1005.9
20260505220637 27 240 11.3 32.2 0.00 0.00 0.00 34 1005.8
20260505220344 27 246 12.9 32.2 0.00 0.00 0.00 33 1005.8
20260505220207 27 225 17.7 32.2 0.00 0.00 0.00 33 1005.7
20260505215832 27 200 16.1 32.2 0.00 0.00 0.00 33 1005.7
20260505215635 27 227 14.5 30.6 0.00 0.00 0.00 32 1005.8
20260505215341 27 243 8.0 30.6 0.00 0.00 0.00 34 1005.8
20260505215143 27 212 17.7 33.8 0.00 0.00 0.00 32 1005.8
20260505214850 27 220 17.7 33.8 0.00 0.00 0.00 32 1005.8
20260505214653 27 213 14.5 33.8 0.00 0.00 0.00 33 1005.7
20260505214338 27 223 8.0 32.2 0.00 0.00 0.00 33 1005.7
20260505214158 27 260 14.5 37.0 0.00 0.00 0.00 32 1005.7
20260505213846 27 218 14.5 37.0 0.00 0.00 0.00 33 1005.7
20260505213644 27 212 9.7 37.0 0.00 0.00 0.00 33 1005.5
20260505213334 27 229 11.3 41.8 0.00 0.00 0.00 33 1005.6
20260505213133 27 196 14.5 41.8 0.00 0.00 0.00 33 1005.6
20260505212911 27 221 14.5 48.3 0.00 0.00 0.00 34 1005.5
20260505212647 27 244 20.9 48.3 0.00 0.00 0.00 33 1005.5
20260505212336 27 231 24.1 48.3 0.00 0.00 0.00 32 1005.4
20260505212157 27 211 22.5 33.8 0.00 0.00 0.00 34 1005.2
20260505211846 27 181 19.3 33.8 0.00 0.00 0.00 35 1005.2
20260505211645 27 186 19.3 33.8 0.00 0.00 0.00 34 1005.2
20260505211334 27 252 17.7 29.0 0.00 0.00 0.00 35 1005.2
20260505211132 27 261 16.1 33.8 0.00 0.00 0.00 34 1005.4
20260505210843 27 266 20.9 43.5 0.00 0.00 0.00 34 1005.3
20260505210641 27 216 14.5 43.5 0.00 0.00 0.00 35 1005.3
20260505210333 27 216 19.3 43.5 0.00 0.00 0.00 35 1005.3
20260505210150 27 257 24.1 43.5 0.00 0.00 0.00 35 1005.3
20260505205839 27 214 19.3 40.2 0.00 0.00 0.00 34 1005.4
20260505205637 27 225 19.3 40.2 0.00 0.00 0.00 34 1005.3
20260505205404 27 220 14.5 40.2 0.00 0.00 0.00 35 1005.3
20260505205145 27 208 25.7 40.2 0.00 0.00 0.00 34 1005.3
20260505204831 27 145 19.3 40.2 0.00 0.00 0.00 35 1005.3
20260505204634 27 233 16.1 32.2 0.00 0.00 0.00 37 1005.4
20260505204342 27 234 19.3 32.2 0.00 0.00 0.00 36 1005.3
20260505204144 27 214 17.7 30.6 0.00 0.00 0.00 36 1005.3
20260505203832 27 202 11.3 33.8 0.00 0.00 0.00 37 1005.4
20260505203634 27 234 9.7 37.0 0.00 0.00 0.00 37 1005.5
20260505203342 27 198 19.3 40.2 0.00 0.00 0.00 36 1005.6
20260505203144 27 246 19.3 40.2 0.00 0.00 0.00 36 1005.5
20260505202849 27 225 20.9 40.2 0.00 0.00 0.00 36 1005.5
20260505202653 28 216 19.3 40.2 0.00 0.00 0.00 36 1005.4
20260505202339 28 250 16.1 49.9 0.00 0.00 0.00 36 1005.6
20260505202135 27 213 17.7 49.9 0.00 0.00 0.00 36 1005.5
20260505201845 27 194 24.1 49.9 0.00 0.00 0.00 35 1005.5
20260505201643 28 230 20.9 46.7 0.00 0.00 0.00 37 1005.6
20260505201413 27 189 12.9 37.0 0.00 0.00 0.00 37 1005.5
20260505201210 27 250 24.1 37.0 0.00 0.00 0.00 36 1005.7
20260505200840 28 184 16.1 37.0 0.00 0.00 0.00 37 1005.5
20260505200638 28 211 17.7 37.0 0.00 0.00 0.00 36 1005.6
20260505200350 28 149 14.5 37.0 0.00 0.00 0.00 36 1005.5
20260505200207 28 207 17.7 37.0 0.00 0.00 0.00 37 1005.5
20260505195838 28 268 17.7 37.0 0.00 0.00 0.00 36 1005.5
20260505195636 28 212 19.3 38.6 0.00 0.00 0.00 34 1005.5
20260505195347 28 235 12.9 38.6 0.00 0.00 0.00 36 1005.5
20260505195142 28 209 12.9 38.6 0.00 0.00 0.00 35 1005.6
20260505194833 28 221 17.7 37.0 0.00 0.00 0.00 35 1005.6
20260505194651 28 276 16.1 35.4 0.00 0.00 0.00 35 1005.5
20260505194338 28 201 20.9 35.4 0.00 0.00 0.00 36 1005.6
20260505194139 28 227 19.3 37.0 0.00 0.00 0.00 36 1005.6
20260505193906 28 257 17.7 30.6 0.00 0.00 0.00 35 1005.7
20260505193646 28 226 11.3 35.4 0.00 0.00 0.00 36 1005.7
20260505193354 28 204 17.7 35.4 0.00 0.00 0.00 37 1005.7
20260505193156 27 189 16.1 35.4 0.00 0.00 0.00 38 1005.8
20260505192842 27 219 22.5 35.4 0.00 0.00 0.00 36 1005.8
20260505192639 27 230 22.5 35.4 0.00 0.00 0.00 37 1005.8
20260505192350 27 210 19.3 32.2 0.00 0.00 0.00 37 1005.8
20260505192148 27 187 17.7 33.8 0.00 0.00 0.00 37 1005.9
20260505191838 27 237 11.3 37.0 0.00 0.00 0.00 38 1006.0
20260505191635 27 206 16.1 37.0 0.00 0.00 0.00 37 1006.0
20260505191343 27 221 22.5 45.1 0.00 0.00 0.00 37 1005.9
20260505191141 27 202 22.5 45.1 0.00 0.00 0.00 37 1006.0
20260505190911 27 220 22.5 45.1 0.00 0.00 0.00 37 1006.1
20260505190709 27 173 25.7 45.1 0.00 0.00 0.00 37 1006.1
20260505190339 27 216 22.5 40.2 0.00 0.00 0.00 37 1006.1
20260505190135 27 243 22.5 48.3 0.00 0.00 0.00 38 1006.1
20260505185845 28 202 20.9 48.3 0.00 0.00 0.00 37 1006.2
20260505185644 28 211 19.3 48.3 0.00 0.00 0.00 38 1006.1
20260505185333 28 205 17.7 29.0 0.00 0.00 0.00 37 1006.1
20260505185151 28 165 12.9 29.0 0.00 0.00 0.00 39 1006.1
20260505184842 28 186 11.3 37.0 0.00 0.00 0.00 40 1006.1
20260505184641 28 233 16.1 37.0 0.00 0.00 0.00 39 1006.2
20260505184333 28 204 19.3 37.0 0.00 0.00 0.00 40 1006.4
20260505184150 28 206 9.7 25.7 0.00 0.00 0.00 43 1006.3
20260505183835 28 220 12.9 33.8 0.00 0.00 0.00 41 1006.5
20260505183637 27 176 14.5 33.8 0.00 0.00 0.00 41 1006.6
20260505183344 27 193 17.7 35.4 0.00 0.00 0.00 39 1006.6
20260505183146 27 191 20.9 35.4 0.00 0.00 0.00 39 1006.6
20260505182833 27 181 16.1 35.4 0.00 0.00 0.00 40 1006.8
20260505182635 27 279 22.5 45.1 0.00 0.00 0.00 39 1006.7
20260505182341 27 199 19.3 45.1 0.00 0.00 0.00 39 1006.7
20260505182144 27 185 17.7 45.1 0.00 0.00 0.00 41 1006.7
20260505181851 27 175 19.3 46.7 0.00 0.00 0.00 41 1006.7
20260505181633 27 241 17.7 32.2 0.00 0.00 0.00 41 1006.6
20260505181338 28 214 12.9 32.2 0.00 0.00 0.00 42 1006.6
20260505181141 27 212 14.5 32.2 0.00 0.00 0.00 44 1006.7
20260505180847 27 212 17.7 32.2 0.00 0.00 0.00 42 1006.8
20260505180649 27 229 12.9 37.0 0.00 0.00 0.00 42 1006.7
20260505180335 27 251 12.9 37.0 0.00 0.00 0.00 43 1006.8
20260505180136 27 148 19.3 40.2 0.00 0.00 0.00 43 1006.8
20260505175845 27 217 19.3 40.2 0.00 0.00 0.00 43 1006.9
20260505175642 27 212 14.5 40.2 0.00 0.00 0.00 45 1006.9
20260505175333 27 202 20.9 40.2 0.00 0.00 0.00 45 1006.8
20260505175150 27 208 9.7 33.8 0.00 0.00 0.00 48 1006.8
20260505174839 27 251 16.1 30.6 0.00 0.00 0.00 44 1006.9
20260505174657 27 217 16.1 30.6 0.00 0.00 0.00 44 1006.9
20260505174347 27 237 14.5 30.6 0.00 0.00 0.00 44 1006.9
20260505174145 27 208 17.7 30.6 0.00 0.00 0.00 45 1006.9
20260505173836 27 194 14.5 30.6 0.00 0.00 0.00 47 1006.9
20260505173634 27 181 14.5 30.6 0.00 0.00 0.00 45 1007.0
20260505173345 27 212 17.7 32.2 0.00 0.00 0.00 45 1007.0
20260505173204 27 235 14.5 32.2 0.00 0.00 0.00 47 1007.0
20260505172833 27 228 17.7 32.2 0.00 0.00 0.00 45 1007.0
20260505172650 27 182 14.5 32.2 0.00 0.00 0.00 46 1007.1
20260505172339 26 188 14.5 32.2 0.00 0.00 0.00 46 1007.2
20260505172138 26 232 14.5 32.2 0.00 0.00 0.00 46 1007.2
20260505171848 26 239 17.7 32.2 0.00 0.00 0.00 45 1007.3
20260505171707 26 214 17.7 27.4 0.00 0.00 0.00 46 1007.3
20260505171332 26 227 14.5 29.0 0.00 0.00 0.00 46 1007.4
20260505171135 26 199 12.9 29.0 0.00 0.00 0.00 46 1007.4
20260505170842 26 216 14.5 29.0 0.00 0.00 0.00 46 1007.4
20260505170642 26 199 16.1 29.0 0.00 0.00 0.00 47 1007.5
20260505170409 26 229 19.3 30.6 0.00 0.00 0.00 46 1007.5
20260505170149 26 218 16.1 27.4 0.00 0.00 0.00 47 1007.5
20260505165836 26 233 19.3 27.4 0.00 0.00 0.00 47 1007.6
20260505165637 26 198 16.1 32.2 0.00 0.00 0.00 47 1007.6
20260505165405 26 176 12.9 32.2 0.00 0.00 0.00 47 1007.7
20260505165141 26 254 16.1 32.2 0.00 0.00 0.00 48 1007.8
20260505164850 26 207 20.9 32.2 0.00 0.00 0.00 47 1007.8
20260505164710 26 202 14.5 24.1 0.00 0.00 0.00 50 1007.7
20260505164339 26 212 16.1 24.1 0.00 0.00 0.00 49 1007.8
20260505164137 26 208 16.1 24.1 0.00 0.00 0.00 48 1007.8
20260505163847 26 225 12.9 24.1 0.00 0.00 0.00 48 1007.8
20260505163646 26 239 11.3 24.1 0.00 0.00 0.00 50 1007.8
20260505163336 26 239 11.3 29.0 0.00 0.00 0.00 49 1007.8
20260505163134 26 235 16.1 29.0 0.00 0.00 0.00 48 1007.9
20260505162844 26 225 14.5 29.0 0.00 0.00 0.00 49 1007.9
20260505162641 26 197 17.7 29.0 0.00 0.00 0.00 49 1007.9
20260505162332 26 243 8.0 20.9 0.00 0.00 0.00 53 1007.9
20260505162209 25 185 9.7 27.4 0.00 0.00 0.00 50 1007.9
20260505161840 25 237 11.3 27.4 0.00 0.00 0.00 51 1007.9
20260505161657 25 225 11.3 27.4 0.00 0.00 0.00 50 1008.0
20260505161339 25 190 12.9 22.5 0.00 0.00 0.00 50 1008.0
20260505161143 25 229 11.3 22.5 0.00 0.00 0.00 49 1008.1
20260505160849 25 217 8.0 22.5 0.00 0.00 0.00 53 1008.1
20260505160631 25 162 12.9 25.7 0.00 0.00 0.00 52 1008.2
20260505160337 25 194 11.3 19.3 0.00 0.00 0.00 51 1008.1
20260505160200 25 178 11.3 22.5 0.00 0.00 0.00 50 1008.1
20260505153350 24 173 12.9 22.5 0.00 0.00 0.00 54 1008.6
20260505153210 24 208 11.3 19.3 0.00 0.00 0.00 56 1008.8
20260505152840 23 193 12.9 19.3 0.00 0.00 0.00 55 1008.8
20260505152639 23 218 11.3 19.3 0.00 0.00 0.00 55 1008.7
20260505152351 23 133 11.3 22.5 0.00 0.00 0.00 56 1008.7
20260505152209 23 185 11.3 22.5 0.00 0.00 0.00 57 1008.8
20260505151839 23 223 8.0 22.5 0.00 0.00 0.00 57 1008.8
20260505151638 23 193 14.5 22.5 0.00 0.00 0.00 56 1008.8
20260505151342 23 186 9.7 17.7 0.00 0.00 0.00 57 1008.7
20260505151143 23 204 8.0 17.7 0.00 0.00 0.00 56 1008.8
20260505150910 23 214 8.0 17.7 0.00 0.00 0.00 57 1008.8
20260505150634 23 226 9.7 19.3 0.00 0.00 0.00 57 1008.8
20260505150340 23 187 4.8 19.3 0.00 0.00 0.00 57 1008.8
20260505150141 23 206 12.9 19.3 0.00 0.00 0.00 56 1008.8
20260505140645 21 231 11.3 17.7 0.00 0.00 0.00 60 1009.2
20260505140334 21 143 9.7 17.7 0.00 0.00 0.00 60 1009.2
20260505140132 21 154 9.7 17.7 0.00 0.00 0.00 61 1009.2
20260505130149 18 196 6.4 16.1 0.00 0.00 0.00 72 1009.4
20260505124837 17 198 8.0 19.3 0.00 0.00 0.00 73 1009.0
20260505124658 17 181 11.3 19.3 0.00 0.00 0.00 74 1009.0
20260505124347 17 178 8.0 16.1 0.00 0.00 0.00 75 1008.9
20260505124145 17 220 6.4 16.1 0.00 0.00 0.00 76 1008.9
20260505123856 16 210 8.0 14.5 0.00 0.00 0.00 76 1008.9
20260505123634 16 203 8.0 14.5 0.00 0.00 0.00 77 1008.9
20260505123340 16 216 9.7 16.1 0.00 0.00 0.00 77 1009.0
20260505123138 16 218 6.4 16.1 0.00 0.00 0.00 78 1009.0